Location: Gesvres
(49.0440°N, 2.8518°E)
Time: 18:32:34
(UTC+00:00)

Cosmos 2263 Rocket - Visible Passes

Search period start: 01 October 2023 00:00
Search period end: 11 October 2023 00:00
Orbit: 824 x 847 km, 71.0° (Epoch: 30 September)

Date Brightness Start Highest point End Pass type
(mag) Time Alt. Az. Time Alt. Az. Time Alt. Az.
03 Oct 4.3 05:02:51 10° SSE 05:07:43 31° ESE 05:12:35 10° NE visible
04 Oct 4.3 04:46:06 10° SSE 04:50:51 29° ESE 04:55:35 10° NE visible
05 Oct 4.4 04:29:23 10° SSE 04:33:59 27° ESE 04:38:35 10° NE visible
06 Oct 4.5 04:12:41 10° SSE 04:17:07 25° ESE 04:21:34 10° NE visible
07 Oct 4.5 03:56:00 10° SSE 04:00:16 23° ESE 04:04:32 10° NE visible
08 Oct 4.6 03:39:20 10° SSE 03:43:25 21° E 03:47:30 10° NE visible
08 Oct 2.2 05:21:10 10° SW 05:26:46 71° WNW 05:32:22 10° NNE visible
09 Oct 4.6 03:22:42 10° SE 03:26:34 19° E 03:30:26 10° NE visible
09 Oct 2.1 05:04:14 10° SSW 05:09:50 76° WNW 05:15:28 10° NNE visible
10 Oct 4.6 03:06:05 10° SE 03:09:43 18° E 03:13:20 10° ENE visible
10 Oct 2.1 04:47:18 10° SSW 04:52:55 82° WNW 04:58:33 10° NNE visible
